sat.trackr.live / text

‹ back to catalog

STARLINK-32802

NORAD 62738 · 2025-014D

PAYLOAD ACTIVE UNKNOWN

§ Identity

Operator
Country
US
Launch date
2025-01-21
Launch site
AFETR
Launch vehicle
Mass (kg)
RCS (m²)

Purposes: comms

External: N2YO · Heavens-Above · Gunter

§ Orbital elements

Epoch: 2026-05-25T04:57:25.072416Z

Period
94.27 min
Inclination
43.0038°
Eccentricity
0.0001016
Mean motion
15.27588721 rev/d
Perigee alt
482.3 km
Apogee alt
483.7 km
Semi-major
6,861.2 km
B*
5.1102e-4
RAAN
81.9157°
Arg perigee
270.7931°
Mean anomaly
89.2804°
Rev number
7,496

§ Raw data

STARLINK-328021 62738U 25014D   26145.20654019  .00013830  00000+0  51102-3 0  99992 62738  43.0038  81.9157 0001016 270.7931  89.2804 15.27588721 74967

JSON: /api/v1/satellites/62738 · /tle

For live sub-satellite position, see the globe view (requires WebGL).

§ Visibility from observer

Set your observer location to see the next 7 days of passes ≥ 10°. The values pass through the URL so the page stays shareable.

No JS? Fill the form by hand. The geolocation button needs JavaScript.